STARLINK-37687, 69368

Orbit data source: Space-Track

STARLINK-37687, 69368 is a payload satellite owned by SpaceX/Seattle (US) in LEO that was launched on Thu, 04 Jun 2026 UTC via an FALCON 9 launch vehicle from the Air Force Eastern Test Range (AFETR). Payload-class satellites include a variety of spacecraft equipped with specific instruments for various scientific and technological missions. These include communications satellites like Starlink; space stations such as the ISS; scientific satellites like the Hubble; Earth observation satellites from companies like Planet Labs, Umbra, and HawkEye 360; GPS; miniature CubeSats for education and research; and military/defense satellites.

Loading next visibility...
Identifier
69368, 2026-123R
Orbit
LEO
Country
Flag of USUS
Related business
Manufacturer
SpaceX/Seattle
Mission
Operational spacecraft
Bus & Motor
STARLINK V2MO, Unknown motor
Mass
575 kg wet, ~530 kg dry
Launch date (UTC)
2026-06-04 (2 months ago)
Launch vehicle
FALCON 9
Launch site
Air Force Eastern Test Range (AFETR)
Object type
Payload
Rocket body
Debris
Shape & HBR
Unknown shape, 17.7 m
Radar Cross Section
Large (>1 m²)

Expand to show TLE details & history
Last TLE update: 19 hours ago

TLE from 19 hours ago
0 STARLINK-37687
1 69368U 26123R   26201.90506973  .00221379  00000-0  14100-2 0  9998
2 69368  53.1597  72.5105 0000782  61.0868 299.0231 15.75252246  7372
Epoch: 2026-07-20T21:43Z
TLE epoch observation values (Epoch: 2026-07-20T21:43:18.024Z)
Latitude
-0°
Longitude
168.00298°
Altitude
344.576 km
Speed
7.703 km/s
True Right ascension
04h 50m 02s
True Declination
0° 00' 00"
Sunlit
Object was in daylight at epoch
Visualization orbit readout
Latitude
Unknown
Longitude
Unknown
Altitude
Unknown
Speed
Unknown
Apparent Right ascension
Unknown
Apparent Declination
Unknown
Sunlit
N/A
Visualization observer readout
Local Sidereal Time
05:44:06
Azimuth
Unknown
Elevation
Unknown
Doppler factor
Unknown
Orbital elements
Apogee altitude
344.7 km
Perigee altitude
343.649 km
Semi-major axis
6,722.312 km
Eccentricity
0.00008
Inclination
53.1597°
RAAN
72.5105°
Arg. of periapsis
61.0868°
True anomaly
299.01526°
Mean anomaly
299.0231°
Eccentric anomaly
299.01918°
Mean motion
3.9379 °/min
Orbital period
91.42 mins
BSTAR
0.00141
Loading maneuver chart data...
Computing Atmospheric mass density...
Loading historical data...
Loading historical data...
Loading historical data...
Loading historical data...
Loading historical data...
Loading historical data...
Loading historical data...

Documentation

Showing up to 5 results
|